Aérodrome :
LOGIN :

S'inscrire | Disclaimer

   EN    FR    IT 

 










Légende :    VFR   VFR Marginal   IFR   IFR Intensif   IFR Très Intensif
Visi : 
Plafond : 
>= 8 km
>= 3000ft
5 à 8 km
1000 à 3000 ft
1500m à 5 km
500 à 1000 ft
800 à 1500m
200 à 500 ft
< 800m
< 200 ft
Symboles :   Orages  Brouillard  Fortes neiges  Fortes précipitations  Vent > 20 kt
SIGMETs :   Divers  Orages  Givrage  Turbulence  Onde Orograph.  Cendres Volcan.







- Altitude de l'aérodrome : 12 ft
- Code IATA : NCE
- Voir les cartes d'approche


LFMN - Nice

DERNIER METAR :
  • 220130Z 01003KT 330V030 CAVOK 23/17 Q1011 NOSIG

METARs EXPIRÉS :
  • 220100Z 02004KT 350V050 CAVOK 23/18 Q1011 NOSIG
  • 220036Z 34005KT CAVOK 23/18 Q1012 NOSIG
  • 220000Z 05004KT CAVOK 23/19 Q1012 NOSIG
  • 212330Z 04004KT CAVOK 24/21 Q1012 NOSIG
  • 212300Z 07006KT CAVOK 24/22 Q1012 NOSIG

TAF TAF LFMN
Valide du 21 à 21h jusqu'au 23 à 03h UTC


212000Z 2121/2303 VRB03KT 9999 SCT100
BECMG 2123/2201 08015KT
TEMPO 2206/2212 BKN014
BECMG 2212/2214 BKN020
BECMG 2218/2220 08010KT CAVOK
ATIS : +33 4 93 17 21 16
Pas de NOTAMs connus pour ce terrain.



MET'MAP, la Météo Aéronautique d'un coup d'oeil ! - Copyright ORBIFLY Décembre 2007 - Disclaimer

ORBIFLY MET'MAP TEAM :

Programmation & Développement : Alexandra Zaïnal
Conception & Développement : Baudouin d'Aumeries
Co-Programmation & Développement : Marc-Olivier Méhu
Soutien technique & logistique : Manuel Goepfert

Contact : metmap@orbifly.com




SOURCES & CREDITS :

   NOAA